Regional Weather Roundup
Issued by NWS Sioux Falls, SD

Home | Current Version | Previous Version | Text Only | Print | Product List | Glossary Off
Versions: 1 2 3 4 5 6 7 8 9 10 11 12 13 14 15 16 17 18 19 20 21 22 23 24 25 26 27 28 29 30 31 32 33 34 35 36 37 38 39 40 41 42 43 44 45 46 47 48 49 50

000
ASUS43 KFSD 232102
RWRFSD

WEATHER ROUNDUP FOR SE SOUTH DAKOTA/SW MINNESOTA/NW IOWA
NATIONAL WEATHER SERVICE SIOUX FALLS SD
400 PM CDT SAT JUL 23 2016

NOTE: "FAIR" INDICATES FEW OR NO CLOUDS BELOW 12,000 FEET WITH NO
SIGNIFICANT WEATHER AND OR OBSTRUCTIONS TO VISIBILITY.


SDZ038>040-050-052>070-232200-
SOUTHEAST SOUTH DAKOTA

CITY           SKY/WX    TMP DP  RH WIND       PRES   REMARKS
BROOKINGS      CLOUDY    89  74  60 S10       29.76F HX  98
CHAMBERLAIN    SUNNY    100  68  35 NW15G23   29.74R HX 105
HURON          SUNNY     93  70  46 S9        29.71F HX  99
MADISON        FAIR      86  73  66 SW13      29.78S
MITCHELL       SUNNY     94  72  48 VRB7      29.72F HX 102
SIOUX FALLS    MOSUNNY   90  74  59 S10       29.75F HX  99
WINNER         FAIR     100  58  24 NW21G29   29.78R HX  99
YANKTON        MOSUNNY   93  72  49 S13       29.72S HX 100
$$

MNZ071-072-080-081-089-090-097-098-232200-
SOUTHWEST MINNESOTA

CITY           SKY/WX    TMP DP  RH WIND       PRES   REMARKS
FAIRMONT       CLOUDY    82  75  78 S16G23    29.80F
JACKSON        PTSUNNY   84  73  70 S13G20    29.82F
LUVERNE        MOSUNNY   88  73  62 S8G16     29.77F HX  96
MARSHALL       MOSUNNY   89  76  65 S12       29.76F HX 100
MONTEVIDEO     CLOUDY    81  73  78 SE17      29.80S
REDWOOD FALLS  CLOUDY    83  74  74 SE14      29.79F
TRACY          CLOUDY    86  78  76 SE8       29.78F HX  99
WINDOM         MOSUNNY   84  73  70 SE8       29.81S
WORTHINGTON    PTSUNNY   87  77  72 MISG      29.80F HX  99
$$

IAZ001>003-012>014-020>022-031-032-NEZ013-014-SDZ071-232200-
NORTHWEST IOWA

CITY           SKY/WX    TMP DP  RH WIND       PRES   REMARKS
CHEROKEE       SUNNY     88  77  69 S15       29.79F HX  99
DENISON        SUNNY     88  77  70 S10G17    29.79F HX 100
ESTHERVILLE    MOSUNNY   83  76  79 S18       29.81F
LE MARS        SUNNY     91  77  62 S16       29.77F HX 105
SHELDON        SUNNY     86  79  79 S13G21    29.77F HX  99
SIOUX CITY     SUNNY     93  77  59 S13       29.76F HX 107
SPENCER        PTSUNNY   86  74  67 S16       29.80F
STORM LAKE       N/A     86  75  70 S15       29.82F HX  95
$$

ABBREVIATIONS USED IN REMARKS
   TC - TEMPERATURE IN CELSIUS
  WCI - WIND CHILL INDEX
   HX - HEAT INDEX
  VSB - VISIBILITY




USA.gov is the U.S. government's official web portal to all federal, state and local government web resources and services.